Hayward, WI

10:07 AM CST on November 18, 2019 (GMT -0600)
Sawyer County

Weather History for KHYR - September, 2019

Change the Weather History Date:

Friday, September 13, 2019

  Actual Average Record
Temperature  
Mean Temperature 57 °F -  
Max Temperature 62 °F 79 °F 86 °F (1998)
Min Temperature 52 °F 53 °F 30 °F (1996)
Degree Days  
Heating Degree Days 8    
Growing Degree Days 7 (Base 50)    
Moisture  
Dew Point 53 °F    
Average Humidity 85    
Maximum Humidity 93    
Minimum Humidity 72    
Precipitation  
Precipitation 0.09 in - - ()
Sea Level Pressure  
Sea Level Pressure 29.86 in    
Wind  
Wind Speed 10 mph (SW)    
Max Wind Speed 17 mph    
Max Gust Speed 32 mph    
Visibility 7 miles    
Events Rain    
Averages and records for this station are not official NWS values.
T = Trace of Precipitation, MM = Missing Value Source: NWS Daily Summary

Daily Weather History Graph

Daily Weather History Graph

Search for Another Location

Airport or City:

Astronomy

Sep. 13, 2019 Rise Set
Actual Time 6:41 AM CDT 7:21 PM CDT
Civil Twilight 6:11 AM CDT 7:51 PM CDT
Nautical Twilight 5:35 AM CDT 8:27 PM CDT
Astronomical Twilight 4:57 AM CDT 9:04 PM CDT
Moon 7:38 PM CDT (9/13) 5:52 AM CDT (9/13)
Length of Visible Light 13h 40m
Length of Day
12h 40m
Full, 100% of the Moon is Illuminated
Sep 13
Full
Sep 13
Full
Sep 21
Last Quarter
Sep 28
New
Oct 5
First Quarter

Hourly Weather History & Observations

Time (CDT) Temp. Dew Point Humidity Pressure Visibility Wind Dir Wind Speed Gust Speed Precip Events Conditions
12:53 AM 62.1 °F 59.0 °F 90% 29.83 in 10.0 mi South 12.7 mph - 0.00 in   Overcast
1:53 AM 61.0 °F 59.0 °F 93% 29.81 in 7.0 mi South 9.2 mph - 0.00 in   Overcast
2:07 AM 61.0 °F 59.0 °F 93% 29.81 in 2.5 mi South 10.4 mph - 0.00 in Rain Light Rain
2:20 AM 61.0 °F 59.0 °F 93% 29.80 in 4.0 mi South 8.1 mph - 0.00 in   Overcast
2:36 AM 61.0 °F 59.0 °F 93% 29.80 in 2.5 mi South 6.9 mph - 0.00 in   Overcast
2:53 AM 61.0 °F 59.0 °F 93% 29.79 in 2.5 mi SSE 5.8 mph - 0.00 in   Overcast
3:02 AM 61.0 °F 59.0 °F 93% 29.79 in 5.0 mi South 8.1 mph - N/A   Overcast
3:53 AM 61.0 °F 59.0 °F 93% 29.77 in 9.0 mi South 10.4 mph - 0.00 in   Overcast
4:53 AM 59.0 °F 57.0 °F 93% 29.78 in 10.0 mi SSW 6.9 mph - N/A   Mostly Cloudy
5:00 AM 60.1 °F 57.9 °F 93% 29.77 in 10.0 mi SSW 8.1 mph - N/A   Mostly Cloudy
5:53 AM 60.1 °F 57.9 °F 93% 29.77 in 10.0 mi SSW 10.4 mph - N/A   Mostly Cloudy
6:06 AM 61.0 °F 57.9 °F 90% 29.77 in 10.0 mi SSW 10.4 mph - N/A   Overcast
6:42 AM 61.0 °F 57.9 °F 90% 29.77 in 3.0 mi SSW 10.4 mph - 0.00 in Rain Light Rain
6:48 AM 60.8 °F 57.2 °F 88% 29.77 in 1.8 mi SSW 10.4 mph - 0.00 in Rain Light Rain
6:53 AM 60.1 °F 57.9 °F 93% 29.78 in 1.2 mi SW 8.1 mph - 0.01 in Rain Light Rain
7:08 AM 59.0 °F 55.9 °F 90% 29.78 in 4.0 mi SW 9.2 mph - 0.01 in Rain Light Rain
7:17 AM 59.0 °F 55.9 °F 90% 29.78 in 10.0 mi SW 8.1 mph - 0.01 in   Overcast
7:53 AM 57.0 °F 53.1 °F 87% 29.80 in 10.0 mi WSW 10.4 mph 21.9 mph 0.01 in   Overcast
8:04 AM 57.0 °F 53.1 °F 87% 29.80 in 10.0 mi WSW 9.2 mph 19.6 mph N/A   Overcast
8:12 AM 57.0 °F 53.1 °F 87% 29.80 in 10.0 mi SW 10.4 mph 21.9 mph N/A   Overcast
8:40 AM 57.0 °F 53.1 °F 87% 29.81 in 10.0 mi SW 10.4 mph 20.7 mph 0.00 in   Overcast
8:53 AM 57.0 °F 53.1 °F 87% 29.81 in 7.0 mi SW 10.4 mph - 0.00 in   Overcast
9:53 AM 57.0 °F 54.0 °F 89% 29.82 in 2.5 mi SW 8.1 mph - 0.00 in Rain Light Rain
10:06 AM 57.0 °F 53.1 °F 87% 29.81 in 7.0 mi SW 12.7 mph 21.9 mph 0.00 in Rain Light Rain
10:33 AM 57.9 °F 53.1 °F 84% 29.82 in 10.0 mi SW 11.5 mph 25.3 mph 0.01 in   Overcast
10:44 AM 57.9 °F 53.1 °F 84% 29.82 in 10.0 mi SW 12.7 mph 23.0 mph 0.01 in   Overcast
10:53 AM 57.9 °F 53.1 °F 84% 29.82 in 8.0 mi SW 10.4 mph 24.2 mph 0.01 in   Overcast
11:13 AM 59.0 °F 52.0 °F 78% 29.82 in 5.0 mi SW 12.7 mph 25.3 mph 0.00 in Rain Light Rain
11:43 AM 57.0 °F 51.1 °F 81% 29.84 in 8.0 mi SW 15.0 mph 24.2 mph 0.00 in Rain Light Rain
11:53 AM 57.0 °F 50.0 °F 77% 29.84 in 10.0 mi WSW 15.0 mph 28.8 mph 0.00 in   Overcast
11:58 AM 57.0 °F 48.9 °F 74% 29.84 in 10.0 mi SW 17.3 mph 28.8 mph N/A   Overcast
12:53 PM 57.0 °F 48.0 °F 72% 29.86 in 10.0 mi WSW 13.8 mph 26.5 mph 0.00 in   Overcast
1:28 PM 57.0 °F 50.0 °F 77% 29.86 in 4.0 mi WSW 10.4 mph 26.5 mph 0.00 in Rain Light Rain
1:53 PM 57.0 °F 48.9 °F 74% 29.87 in 10.0 mi SW 11.5 mph 26.5 mph 0.00 in   Overcast
2:53 PM 55.9 °F 48.9 °F 77% 29.88 in 6.0 mi WSW 12.7 mph 25.3 mph 0.00 in Rain Light Rain
3:45 PM 55.9 °F 48.0 °F 75% 29.90 in 10.0 mi WSW 15.0 mph 32.2 mph 0.00 in   Overcast
3:53 PM 57.0 °F 48.9 °F 74% 29.90 in 10.0 mi WSW 8.1 mph 25.3 mph 0.00 in Rain Light Rain
4:26 PM 55.9 °F 48.9 °F 77% 29.90 in 7.0 mi SW 11.5 mph 23.0 mph 0.00 in Rain Light Rain
4:42 PM 55.0 °F 48.9 °F 80% 29.90 in 10.0 mi WSW 11.5 mph 20.7 mph 0.00 in   Overcast
4:53 PM 55.9 °F 48.0 °F 75% 29.91 in 6.0 mi WSW 12.7 mph 24.2 mph 0.00 in Rain Light Rain
5:26 PM 55.0 °F 48.9 °F 80% 29.91 in 10.0 mi Variable 6.9 mph 20.7 mph 0.01 in   Overcast
5:38 PM 55.0 °F 48.9 °F 80% 29.92 in 10.0 mi WSW 10.4 mph 25.3 mph 0.01 in Rain Light Rain
5:53 PM 55.0 °F 48.0 °F 77% 29.93 in 10.0 mi WSW 10.4 mph 25.3 mph 0.01 in   Overcast
6:24 PM 54.0 °F 48.9 °F 83% 29.93 in 6.0 mi WSW 12.7 mph 19.6 mph 0.00 in Rain Light Rain
6:53 PM 54.0 °F 48.9 °F 83% 29.95 in 9.0 mi SW 10.4 mph 19.6 mph 0.00 in   Overcast
7:00 PM 54.0 °F 48.9 °F 83% 29.94 in 1.5 mi WSW 10.4 mph 19.6 mph 0.01 in Rain Light Rain
7:03 PM 53.1 °F 48.9 °F 86% 29.95 in 0.8 mi Variable 6.9 mph 17.3 mph 0.03 in Rain Rain
7:11 PM 53.1 °F 50.0 °F 89% 29.95 in 1.0 mi West 8.1 mph 19.6 mph 0.05 in Rain Light Rain
7:14 PM 53.1 °F 50.0 °F 89% 29.95 in 3.0 mi Variable 6.9 mph 19.6 mph 0.05 in Rain Light Rain
7:53 PM 52.0 °F 48.9 °F 89% 29.99 in 10.0 mi WSW 4.6 mph - 0.05 in   Overcast
8:53 PM 52.0 °F 48.0 °F 86% 30.01 in 10.0 mi SW 8.1 mph - N/A   Overcast
9:53 PM 53.1 °F 48.0 °F 83% 30.01 in 10.0 mi WSW 8.1 mph 16.1 mph N/A   Overcast
10:53 PM 53.1 °F 48.9 °F 86% 30.02 in 10.0 mi WSW 10.4 mph - N/A   Overcast
11:53 PM 53.1 °F 48.9 °F 86% 30.03 in 10.0 mi WSW 8.1 mph 17.3 mph N/A   Partly Cloudy